Time,TemperatureF,DewpointF,PressureIn,WindDirection,WindDirectionDegrees,WindSpeedMPH,WindSpeedGustMPH,Humidity,HourlyPrecipIn,Conditions,Clouds,dailyrainin,SoftwareType,DateUTC
2013-09-13 00:02:00,57.2,35.5,29.80,SSW,203,0.4,0.9,44,0.00,,,0.00,WUHU216HW,2013-09-13 06:02:00,
2013-09-13 00:07:00,57.2,35.5,29.80,SSW,203,0.7,0.7,44,0.00,,,0.00,WUHU216HW,2013-09-13 06:07:00,
2013-09-13 00:12:00,57.1,34.7,29.80,SSW,203,0.0,0.7,43,0.00,,,0.00,WUHU216HW,2013-09-13 06:12:00,
2013-09-13 00:17:00,57.1,35.8,29.80,SSW,203,0.0,0.4,45,0.00,,,0.00,WUHU216HW,2013-09-13 06:17:00,
2013-09-13 00:22:00,57.1,35.3,29.80,SSW,203,0.0,0.0,44,0.00,,,0.00,WUHU216HW,2013-09-13 06:22:00,
2013-09-13 00:27:00,57.1,35.3,29.80,SSW,203,0.0,0.0,44,0.00,,,0.00,WUHU216HW,2013-09-13 06:27:00,
2013-09-13 00:32:00,57.1,35.3,29.79,SSW,203,0.0,0.0,44,0.00,,,0.00,WUHU216HW,2013-09-13 06:32:00,
2013-09-13 00:37:00,57.1,36.4,29.80,SSW,203,0.7,0.7,46,0.00,,,0.00,WUHU216HW,2013-09-13 06:37:00,
2013-09-13 00:42:00,56.9,36.3,29.79,SSW,203,0.0,0.7,46,0.00,,,0.00,WUHU216HW,2013-09-13 06:42:00,
2013-09-13 00:47:00,56.7,36.6,29.79,SSW,203,0.0,0.7,47,0.00,,,0.00,WUHU216HW,2013-09-13 06:47:00,
2013-09-13 00:52:00,56.7,36.6,29.79,SSW,203,0.0,0.0,47,0.00,,,0.00,WUHU216HW,2013-09-13 06:52:00,
2013-09-13 00:57:00,56.7,37.2,29.79,SSW,203,0.0,0.0,48,0.00,,,0.00,WUHU216HW,2013-09-13 06:57:00,
2013-09-13 01:02:00,56.7,36.6,29.79,SSW,203,0.0,0.0,47,0.00,,,0.00,WUHU216HW,2013-09-13 07:02:00,
2013-09-13 01:07:00,56.7,35.5,29.79,SSW,203,0.0,0.0,45,0.00,,,0.00,WUHU216HW,2013-09-13 07:07:00,
2013-09-13 01:12:00,56.5,35.3,29.79,SSW,203,0.0,0.0,45,0.00,,,0.00,WUHU216HW,2013-09-13 07:12:00,
2013-09-13 01:17:00,56.5,34.7,29.79,SSW,203,0.0,0.0,44,0.00,,,0.00,WUHU216HW,2013-09-13 07:17:00,
2013-09-13 01:22:00,56.5,35.3,29.79,SSW,203,0.0,0.0,45,0.00,,,0.00,WUHU216HW,2013-09-13 07:22:00,
2013-09-13 01:27:00,56.3,35.1,29.79,SSW,203,0.0,0.0,45,0.00,,,0.00,WUHU216HW,2013-09-13 07:27:00,
2013-09-13 01:32:00,56.2,35.6,29.79,SSW,203,0.0,0.0,46,0.00,,,0.00,WUHU216HW,2013-09-13 07:32:00,
2013-09-13 01:37:00,56.2,34.4,29.79,SSW,203,0.0,0.0,44,0.00,,,0.00,WUHU216HW,2013-09-13 07:37:00,
2013-09-13 01:42:00,56.0,34.2,29.79,SSW,203,0.0,0.0,44,0.00,,,0.00,WUHU216HW,2013-09-13 07:42:00,
2013-09-13 01:47:00,56.0,34.2,29.78,SSW,203,0.0,0.0,44,0.00,,,0.00,WUHU216HW,2013-09-13 07:47:00,
2013-09-13 01:52:00,55.8,34.1,29.79,SSW,203,0.0,0.0,44,0.00,,,0.00,WUHU216HW,2013-09-13 07:52:00,
2013-09-13 01:57:00,55.8,34.1,29.79,SSW,203,0.0,0.0,44,0.00,,,0.00,WUHU216HW,2013-09-13 07:57:00,
2013-09-13 02:02:00,55.8,34.1,29.79,SSW,203,0.0,0.0,44,0.00,,,0.00,WUHU216HW,2013-09-13 08:02:00,
2013-09-13 02:07:00,55.8,34.1,29.79,SSW,203,0.0,0.0,44,0.00,,,0.00,WUHU216HW,2013-09-13 08:07:00,
2013-09-13 02:12:00,55.8,33.5,29.79,SSW,203,0.0,0.0,43,0.00,,,0.00,WUHU216HW,2013-09-13 08:12:00,
2013-09-13 02:17:00,55.8,32.9,29.79,SSW,203,0.0,0.0,42,0.00,,,0.00,WUHU216HW,2013-09-13 08:17:00,
2013-09-13 02:22:00,55.4,33.2,29.79,SSW,203,0.0,0.0,43,0.00,,,0.00,WUHU216HW,2013-09-13 08:22:00,
2013-09-13 02:27:00,55.4,31.5,29.79,SSW,203,0.0,0.0,40,0.00,,,0.00,WUHU216HW,2013-09-13 08:27:00,
2013-09-13 02:32:00,55.4,32.0,29.78,SSW,203,0.0,0.0,41,0.00,,,0.00,WUHU216HW,2013-09-13 08:32:00,
2013-09-13 02:37:00,55.4,32.0,29.78,SSW,203,0.0,0.0,41,0.00,,,0.00,WUHU216HW,2013-09-13 08:37:00,
2013-09-13 02:42:00,55.6,32.2,29.78,SSW,203,0.0,0.0,41,0.00,,,0.00,WUHU216HW,2013-09-13 08:42:00,
2013-09-13 02:47:00,55.4,30.8,29.78,SSW,203,0.0,0.0,39,0.00,,,0.00,WUHU216HW,2013-09-13 08:47:00,
2013-09-13 02:52:00,55.3,31.3,29.78,SSW,203,0.0,0.0,40,0.00,,,0.00,WUHU216HW,2013-09-13 08:52:00,
2013-09-13 02:57:00,55.3,31.3,29.78,SSW,203,0.0,0.0,40,0.00,,,0.00,WUHU216HW,2013-09-13 08:57:00,
2013-09-13 03:02:00,55.3,30.6,29.78,SSW,203,0.0,0.0,39,0.00,,,0.00,WUHU216HW,2013-09-13 09:02:00,
2013-09-13 03:07:00,55.1,30.5,29.79,SSW,203,0.0,0.0,39,0.00,,,0.00,WUHU216HW,2013-09-13 09:07:00,
2013-09-13 03:12:00,55.1,31.1,29.78,SSW,203,0.0,0.0,40,0.00,,,0.00,WUHU216HW,2013-09-13 09:12:00,
2013-09-13 03:17:00,55.1,31.8,29.78,SSW,203,0.0,0.0,41,0.00,,,0.00,WUHU216HW,2013-09-13 09:17:00,
2013-09-13 03:22:00,54.9,30.3,29.78,SSW,203,0.0,0.0,39,0.00,,,0.00,WUHU216HW,2013-09-13 09:22:00,
2013-09-13 03:27:00,54.9,29.6,29.78,SSW,203,0.0,0.0,38,0.00,,,0.00,WUHU216HW,2013-09-13 09:27:00,
2013-09-13 03:32:00,54.7,31.4,29.79,SSW,203,0.0,0.0,41,0.00,,,0.00,WUHU216HW,2013-09-13 09:32:00,
2013-09-13 03:37:00,54.7,31.4,29.79,SSW,203,0.0,0.0,41,0.00,,,0.00,WUHU216HW,2013-09-13 09:37:00,
2013-09-13 03:42:00,54.5,30.0,29.79,SSW,203,0.0,0.0,39,0.00,,,0.00,WUHU216HW,2013-09-13 09:42:00,
2013-09-13 03:47:00,54.5,30.0,29.79,SSW,203,0.0,0.0,39,0.00,,,0.00,WUHU216HW,2013-09-13 09:47:00,
2013-09-13 03:52:00,54.4,29.2,29.79,SSW,203,0.0,0.0,38,0.00,,,0.00,WUHU216HW,2013-09-13 09:52:00,
2013-09-13 03:57:00,54.4,30.5,29.78,SSW,203,0.0,0.0,40,0.00,,,0.00,WUHU216HW,2013-09-13 09:57:00,
2013-09-13 04:02:00,54.2,29.7,29.78,SSW,203,0.0,0.0,39,0.00,,,0.00,WUHU216HW,2013-09-13 10:02:00,
2013-09-13 04:07:00,54.0,28.8,29.78,SSW,203,0.0,0.0,38,0.00,,,0.00,WUHU216HW,2013-09-13 10:07:00,
2013-09-13 04:12:00,53.8,25.9,29.78,SSW,203,0.0,0.0,34,0.00,,,0.00,WUHU216HW,2013-09-13 10:12:00,
2013-09-13 04:17:00,53.6,27.2,29.78,SSW,203,0.0,0.0,36,0.00,,,0.00,WUHU216HW,2013-09-13 10:17:00,
2013-09-13 04:22:00,53.6,27.2,29.78,SSW,203,0.0,0.0,36,0.00,,,0.00,WUHU216HW,2013-09-13 10:22:00,
2013-09-13 04:27:00,53.5,24.9,29.78,SSW,203,0.0,0.0,33,0.00,,,0.00,WUHU216HW,2013-09-13 10:27:00,
2013-09-13 04:32:00,53.3,24.8,29.78,SSW,203,0.0,0.0,33,0.00,,,0.00,WUHU216HW,2013-09-13 10:32:00,
2013-09-13 04:37:00,53.3,23.4,29.78,SSW,203,0.0,0.0,31,0.00,,,0.00,WUHU216HW,2013-09-13 10:37:00,
2013-09-13 04:42:00,53.1,23.2,29.78,SSW,203,0.0,0.0,31,0.00,,,0.00,WUHU216HW,2013-09-13 10:42:00,
2013-09-13 04:47:00,52.9,22.4,29.78,SSW,203,0.0,0.0,30,0.00,,,0.00,WUHU216HW,2013-09-13 10:47:00,
2013-09-13 04:52:00,52.9,21.4,29.78,SSW,203,0.0,0.0,29,0.00,,,0.00,WUHU216HW,2013-09-13 10:52:00,
2013-09-13 04:57:00,53.1,20.7,29.77,SSW,203,0.0,0.0,28,0.00,,,0.00,WUHU216HW,2013-09-13 10:57:00,
2013-09-13 05:02:00,53.1,21.6,29.77,SSW,203,0.0,0.0,29,0.00,,,0.00,WUHU216HW,2013-09-13 11:02:00,
2013-09-13 05:07:00,53.3,20.8,29.77,SSW,203,0.7,0.7,28,0.00,,,0.00,WUHU216HW,2013-09-13 11:07:00,
2013-09-13 05:12:00,53.5,21.0,29.77,SSW,203,0.2,0.7,28,0.00,,,0.00,WUHU216HW,2013-09-13 11:12:00,
2013-09-13 05:17:00,53.3,24.1,29.77,SSW,203,0.0,0.7,32,0.00,,,0.00,WUHU216HW,2013-09-13 11:17:00,
2013-09-13 05:22:00,53.1,24.6,29.77,SSW,203,0.0,0.0,33,0.00,,,0.00,WUHU216HW,2013-09-13 11:22:00,
2013-09-13 05:27:00,53.1,24.0,29.77,SSW,203,0.0,0.0,32,0.00,,,0.00,WUHU216HW,2013-09-13 11:27:00,
2013-09-13 05:32:00,52.9,23.0,29.77,SSW,203,0.0,0.0,31,0.00,,,0.00,WUHU216HW,2013-09-13 11:32:00,
2013-09-13 05:37:00,52.9,21.4,29.77,SSW,203,0.0,0.0,29,0.00,,,0.00,WUHU216HW,2013-09-13 11:37:00,
2013-09-13 05:42:00,52.7,22.2,29.77,SSW,203,0.0,0.0,30,0.00,,,0.00,WUHU216HW,2013-09-13 11:42:00,
2013-09-13 05:47:00,52.7,21.3,29.77,SSW,203,0.0,0.0,29,0.00,,,0.00,WUHU216HW,2013-09-13 11:47:00,
2013-09-13 05:52:00,52.6,19.3,29.77,SSW,203,0.0,0.0,27,0.00,,,0.00,WUHU216HW,2013-09-13 11:52:00,
2013-09-13 05:57:00,52.6,17.4,29.77,SSW,203,0.0,0.0,25,0.00,,,0.00,WUHU216HW,2013-09-13 11:57:00,
2013-09-13 06:02:00,52.4,17.2,29.77,SSW,203,0.0,0.0,25,0.00,,,0.00,WUHU216HW,2013-09-13 12:02:00,
2013-09-13 06:07:00,52.4,19.1,29.77,SSW,203,0.0,0.0,27,0.00,,,0.00,WUHU216HW,2013-09-13 12:07:00,
2013-09-13 06:12:00,52.2,17.0,29.77,SSW,203,0.0,0.0,25,0.00,,,0.00,WUHU216HW,2013-09-13 12:12:00,
2013-09-13 06:17:00,52.2,18.9,29.77,SSW,203,0.9,1.1,27,0.00,,,0.00,WUHU216HW,2013-09-13 12:17:00,
2013-09-13 06:22:00,52.2,18.9,29.77,SSW,203,0.0,1.1,27,0.00,,,0.00,WUHU216HW,2013-09-13 12:22:00,
2013-09-13 06:27:00,52.2,16.1,29.76,SSW,203,0.0,0.4,24,0.00,,,0.00,WUHU216HW,2013-09-13 12:27:00,
2013-09-13 06:32:00,52.0,16.9,29.76,SSW,203,0.0,0.0,25,0.00,,,0.00,WUHU216HW,2013-09-13 12:32:00,
2013-09-13 06:37:00,52.0,15.0,29.76,SSW,203,0.0,0.0,23,0.00,,,0.00,WUHU216HW,2013-09-13 12:37:00,
2013-09-13 06:42:00,52.0,14.0,29.76,SSW,203,0.0,0.0,22,0.00,,,0.00,WUHU216HW,2013-09-13 12:42:00,
2013-09-13 06:47:00,52.0,14.0,29.76,SSW,203,0.0,0.0,22,0.00,,,0.00,WUHU216HW,2013-09-13 12:47:00,
2013-09-13 06:52:00,52.0,14.0,29.76,SSW,203,0.0,0.0,22,0.00,,,0.00,WUHU216HW,2013-09-13 12:52:00,
2013-09-13 06:57:00,51.8,14.0,29.76,SSW,203,0.0,0.0,22,0.00,,,0.00,WUHU216HW,2013-09-13 12:57:00,
2013-09-13 07:02:00,51.8,13.0,29.76,SSW,203,0.0,0.0,21,0.00,,,0.00,WUHU216HW,2013-09-13 13:02:00,
2013-09-13 07:07:00,52.0,13.1,29.76,SSW,203,0.0,0.0,21,0.00,,,0.00,WUHU216HW,2013-09-13 13:07:00,
2013-09-13 07:12:00,52.0,9.2,29.76,SSW,203,0.0,0.0,18,0.00,,,0.00,WUHU216HW,2013-09-13 13:12:00,
2013-09-13 07:17:00,52.2,12.3,29.76,SSW,203,0.0,0.0,20,0.00,,,0.00,WUHU216HW,2013-09-13 13:17:00,
2013-09-13 07:22:00,52.0,9.2,29.76,SSW,203,0.0,0.0,18,0.00,,,0.00,WUHU216HW,2013-09-13 13:22:00,
2013-09-13 07:27:00,52.2,12.3,29.76,SSW,203,0.0,0.0,20,0.00,,,0.00,WUHU216HW,2013-09-13 13:27:00,
2013-09-13 07:32:00,52.0,7.7,29.76,SSW,203,0.0,0.0,17,0.00,,,0.00,WUHU216HW,2013-09-13 13:32:00,
2013-09-13 07:37:00,52.0,7.7,29.76,SSW,203,0.0,0.0,17,0.00,,,0.00,WUHU216HW,2013-09-13 13:37:00,
2013-09-13 07:42:00,52.0,6.1,29.76,SSW,203,0.0,0.0,16,0.00,,,0.00,WUHU216HW,2013-09-13 13:42:00,
2013-09-13 07:47:00,52.0,3.2,29.77,SSW,203,0.0,0.0,14,0.00,,,0.00,WUHU216HW,2013-09-13 13:47:00,
2013-09-13 07:52:00,52.0,0.1,29.77,SSW,203,0.0,0.0,12,0.00,,,0.00,WUHU216HW,2013-09-13 13:52:00,
2013-09-13 07:57:00,52.2,0.3,29.76,SSW,203,0.0,0.0,12,0.00,,,0.00,WUHU216HW,2013-09-13 13:57:00,
2013-09-13 08:02:00,52.2,-1.3,29.76,SSW,203,0.0,0.0,11,0.00,,,0.00,WUHU216HW,2013-09-13 14:02:00,
2013-09-13 08:07:00,52.2,-2.8,29.76,SSW,203,0.0,0.0,8,0.00,,,0.00,WUHU216HW,2013-09-13 14:07:00,
2013-09-13 08:12:00,52.6,-2.5,29.76,SSW,203,0.0,0.0,10,0.00,,,0.00,WUHU216HW,2013-09-13 14:12:00,
2013-09-13 08:17:00,52.9,-2.1,29.76,SSW,203,0.0,0.0,10,0.00,,,0.00,WUHU216HW,2013-09-13 14:17:00,
2013-09-13 08:22:00,52.9,-2.1,29.76,SSW,203,0.0,0.0,10,0.00,,,0.00,WUHU216HW,2013-09-13 14:22:00,
2013-09-13 08:27:00,53.1,-2.1,29.76,SSW,203,0.0,0.0,5,0.00,,,0.00,WUHU216HW,2013-09-13 14:27:00,
2013-09-13 08:32:00,53.3,-1.9,29.76,SSW,203,0.0,0.0,3,0.00,,,0.00,WUHU216HW,2013-09-13 14:32:00,
2013-09-13 08:37:00,53.6,-1.6,29.76,SSW,203,0.0,0.0,5,0.00,,,0.00,WUHU216HW,2013-09-13 14:37:00,
2013-09-13 08:42:00,53.8,-1.4,29.76,SSW,203,0.0,0.0,5,0.00,,,0.00,WUHU216HW,2013-09-13 14:42:00,
2013-09-13 08:47:00,54.4,-1.1,29.76,SSW,203,0.0,0.0,2,0.00,,,0.00,WUHU216HW,2013-09-13 14:47:00,
2013-09-13 08:52:00,54.7,-0.7,29.76,SSW,203,0.0,0.0,2,0.00,,,0.00,WUHU216HW,2013-09-13 14:52:00,
2013-09-13 08:57:00,55.3,-0.4,29.76,SSW,203,0.0,0.0,2,0.00,,,0.00,WUHU216HW,2013-09-13 14:57:00,
2013-09-13 09:02:00,55.8,0.1,29.76,SSW,203,0.0,0.0,2,0.00,,,0.00,WUHU216HW,2013-09-13 15:02:00,
2013-09-13 09:07:00,56.3,0.5,29.76,SSW,203,0.0,0.0,3,0.00,,,0.00,WUHU216HW,2013-09-13 15:07:00,
2013-09-13 09:12:00,57.1,1.0,29.76,SSW,203,0.0,0.0,5,0.00,,,0.00,WUHU216HW,2013-09-13 15:12:00,
2013-09-13 09:17:00,57.6,6.0,29.76,SSW,203,0.0,0.4,13,0.00,,,0.00,WUHU216HW,2013-09-13 15:17:00,
2013-09-13 09:22:00,58.3,17.3,29.76,SSW,203,0.7,0.7,20,0.00,,,0.00,WUHU216HW,2013-09-13 15:22:00,
2013-09-13 09:27:00,58.9,24.8,29.76,SSW,203,0.0,0.7,27,0.00,,,0.00,WUHU216HW,2013-09-13 15:27:00,
2013-09-13 09:32:00,59.9,33.4,29.76,SSW,203,0.2,0.4,37,0.00,,,0.00,WUHU216HW,2013-09-13 15:32:00,
2013-09-13 09:37:00,60.7,32.6,29.76,SSW,203,0.0,0.7,35,0.00,,,0.00,WUHU216HW,2013-09-13 15:37:00,
2013-09-13 09:42:00,61.6,37.0,29.77,SSW,203,0.0,0.7,40,0.00,,,0.00,WUHU216HW,2013-09-13 15:42:00,
2013-09-13 09:47:00,62.6,39.7,29.77,SSW,203,0.0,0.0,43,0.00,,,0.00,WUHU216HW,2013-09-13 15:47:00,
2013-09-13 09:52:00,63.7,40.7,29.77,SSW,203,0.0,0.0,43,0.00,,,0.00,WUHU216HW,2013-09-13 15:52:00,
2013-09-13 09:57:00,64.4,42.0,29.77,South,180,0.0,0.0,44,0.00,,,0.00,WUHU216HW,2013-09-13 15:57:00,
2013-09-13 10:02:00,64.4,43.0,29.77,SE,135,0.0,0.4,46,0.00,,,0.00,WUHU216HW,2013-09-13 16:02:00,
2013-09-13 10:07:00,64.6,44.4,29.77,ENE,68,0.0,0.4,48,0.00,,,0.00,WUHU216HW,2013-09-13 16:07:00,
2013-09-13 10:12:00,64.3,44.7,29.77,NNE,23,0.0,0.2,49,0.00,,,0.00,WUHU216HW,2013-09-13 16:12:00,
2013-09-13 10:17:00,63.9,44.3,29.77,North,0,0.0,0.2,49,0.00,,,0.00,WUHU216HW,2013-09-13 16:17:00,
2013-09-13 10:22:00,63.9,44.3,29.77,North,0,0.0,0.2,49,0.00,,,0.00,WUHU216HW,2013-09-13 16:22:00,
2013-09-13 10:27:00,63.7,44.1,29.77,North,0,0.0,0.0,49,0.00,,,0.00,WUHU216HW,2013-09-13 16:27:00,
2013-09-13 10:32:00,63.7,44.7,29.77,North,0,0.0,0.7,50,0.00,,,0.00,WUHU216HW,2013-09-13 16:32:00,
2013-09-13 10:37:00,63.7,45.2,29.77,North,0,0.0,0.7,51,0.00,,,0.00,WUHU216HW,2013-09-13 16:37:00,
2013-09-13 10:42:00,63.9,44.9,29.77,North,0,0.0,0.0,50,0.00,,,0.00,WUHU216HW,2013-09-13 16:42:00,
2013-09-13 10:47:00,64.1,45.6,29.77,North,0,0.0,0.0,51,0.00,,,0.00,WUHU216HW,2013-09-13 16:47:00,
2013-09-13 10:52:00,63.9,45.8,29.77,South,180,1.3,1.3,52,0.00,,,0.00,WUHU216HW,2013-09-13 16:52:00,
2013-09-13 10:57:00,64.1,46.5,29.77,SSW,203,1.8,1.8,53,0.00,,,0.00,WUHU216HW,2013-09-13 16:57:00,
2013-09-13 11:02:00,64.4,46.4,29.76,SSW,203,2.2,2.5,52,0.00,,,0.00,WUHU216HW,2013-09-13 17:02:00,
2013-09-13 11:07:00,64.6,47.0,29.76,SSW,203,0.4,2.5,53,0.00,,,0.00,WUHU216HW,2013-09-13 17:07:00,
2013-09-13 11:12:00,64.4,46.8,29.76,SSW,203,0.4,1.8,53,0.00,,,0.00,WUHU216HW,2013-09-13 17:12:00,
2013-09-13 11:17:00,64.4,46.4,29.76,SSW,203,0.0,0.9,52,0.00,,,0.00,WUHU216HW,2013-09-13 17:17:00,
2013-09-13 11:22:00,64.4,46.4,29.76,SSW,203,0.0,0.9,52,0.00,,,0.00,WUHU216HW,2013-09-13 17:22:00,
2013-09-13 11:27:00,65.9,47.3,29.76,SSW,203,0.0,0.9,51,0.00,,,0.00,WUHU216HW,2013-09-13 17:27:00,
2013-09-13 11:32:00,67.7,48.4,29.75,SSW,203,0.0,0.0,50,0.00,,,0.00,WUHU216HW,2013-09-13 17:32:00,
2013-09-13 11:37:00,70.0,52.1,29.75,SSW,203,0.4,0.4,53,0.00,,,0.00,WUHU216HW,2013-09-13 17:37:00,
2013-09-13 11:42:00,72.5,53.8,29.76,NE,45,1.3,1.3,52,0.00,,,0.00,WUHU216HW,2013-09-13 17:42:00,
2013-09-13 11:47:00,75.4,56.6,29.75,SSW,203,1.1,1.3,52,0.00,,,0.00,WUHU216HW,2013-09-13 17:47:00,
2013-09-13 11:52:00,77.0,56.4,29.75,SSE,158,0.0,1.6,49,0.00,,,0.00,WUHU216HW,2013-09-13 17:52:00,
2013-09-13 11:57:00,78.5,57.2,29.75,NE,45,0.4,1.6,48,0.00,,,0.00,WUHU216HW,2013-09-13 17:57:00,
2013-09-13 12:02:00,79.0,57.0,29.75,NNE,23,0.0,2.2,47,0.00,,,0.00,WUHU216HW,2013-09-13 18:02:00,
2013-09-13 12:07:00,79.9,54.2,29.75,NNE,23,1.1,2.7,41,0.00,,,0.00,WUHU216HW,2013-09-13 18:07:00,
2013-09-13 12:12:00,77.9,53.0,29.74,NE,45,1.1,2.7,42,0.00,,,0.00,WUHU216HW,2013-09-13 18:12:00,
2013-09-13 12:17:00,78.5,54.7,29.74,NNE,23,0.0,2.0,44,0.00,,,0.00,WUHU216HW,2013-09-13 18:17:00,
2013-09-13 12:22:00,81.2,57.2,29.74,South,180,0.0,1.1,44,0.00,,,0.00,WUHU216HW,2013-09-13 18:22:00,
2013-09-13 12:27:00,82.8,58.0,29.74,NE,45,0.9,1.1,43,0.00,,,0.00,WUHU216HW,2013-09-13 18:27:00,
2013-09-13 12:32:00,84.6,58.4,29.74,NNE,23,1.1,1.1,41,0.00,,,0.00,WUHU216HW,2013-09-13 18:32:00,
2013-09-13 12:37:00,84.6,55.4,29.74,North,0,1.8,2.0,37,0.00,,,0.00,WUHU216HW,2013-09-13 18:37:00,
2013-09-13 12:42:00,82.4,54.2,29.74,North,0,0.4,2.2,38,0.00,,,0.00,WUHU216HW,2013-09-13 18:42:00,
2013-09-13 12:47:00,83.0,56.9,29.74,East,90,1.1,2.2,41,0.00,,,0.00,WUHU216HW,2013-09-13 18:47:00,
2013-09-13 12:52:00,82.8,54.5,29.74,NNE,23,0.4,2.5,38,0.00,,,0.00,WUHU216HW,2013-09-13 18:52:00,
2013-09-13 12:57:00,81.7,54.4,29.74,ENE,68,0.9,2.5,39,0.00,,,0.00,WUHU216HW,2013-09-13 18:57:00,
2013-09-13 13:02:00,81.9,55.4,29.74,NE,45,2.5,2.5,40,0.00,,,0.00,WUHU216HW,2013-09-13 19:02:00,
2013-09-13 13:07:00,82.3,54.8,29.73,South,180,1.6,2.5,39,0.00,,,0.00,WUHU216HW,2013-09-13 19:07:00,
2013-09-13 13:12:00,82.8,54.5,29.73,East,90,1.8,2.2,38,0.00,,,0.00,WUHU216HW,2013-09-13 19:12:00,
2013-09-13 13:17:00,82.4,55.8,29.73,ENE,68,0.4,1.8,40,0.00,,,0.00,WUHU216HW,2013-09-13 19:17:00,
2013-09-13 13:22:00,82.3,54.8,29.73,NNE,23,0.2,3.1,39,0.00,,,0.00,WUHU216HW,2013-09-13 19:22:00,
2013-09-13 13:27:00,83.9,55.5,29.73,ENE,68,0.4,3.1,38,0.00,,,0.00,WUHU216HW,2013-09-13 19:27:00,
2013-09-13 13:32:00,84.1,54.9,29.73,ENE,68,1.1,1.1,37,0.00,,,0.00,WUHU216HW,2013-09-13 19:32:00,
2013-09-13 13:37:00,85.0,57.2,29.73,ENE,68,1.1,1.1,39,0.00,,,0.00,WUHU216HW,2013-09-13 19:37:00,
2013-09-13 13:42:00,86.2,57.6,29.73,SW,225,0.7,1.6,38,0.00,,,0.00,WUHU216HW,2013-09-13 19:42:00,
2013-09-13 13:47:00,86.0,56.7,29.73,NE,45,0.2,1.6,37,0.00,,,0.00,WUHU216HW,2013-09-13 19:47:00,
2013-09-13 13:52:00,84.4,53.7,29.73,NNW,338,2.0,2.9,35,0.00,,,0.00,WUHU216HW,2013-09-13 19:52:00,
2013-09-13 13:57:00,84.4,55.2,29.73,North,0,1.1,2.9,37,0.00,,,0.00,WUHU216HW,2013-09-13 19:57:00,
2013-09-13 14:02:00,84.4,55.2,29.73,NE,45,0.0,3.4,37,0.00,,,0.00,WUHU216HW,2013-09-13 20:02:00,
2013-09-13 14:07:00,85.0,55.7,29.73,NE,45,0.4,3.4,37,0.00,,,0.00,WUHU216HW,2013-09-13 20:07:00,
2013-09-13 14:12:00,84.6,55.4,29.73,West,270,0.2,2.7,37,0.00,,,0.00,WUHU216HW,2013-09-13 20:12:00,
2013-09-13 14:17:00,85.0,56.5,29.73,NE,45,0.7,2.7,38,0.00,,,0.00,WUHU216HW,2013-09-13 20:17:00,
2013-09-13 14:22:00,84.8,54.7,29.72,North,0,1.1,1.8,36,0.00,,,0.00,WUHU216HW,2013-09-13 20:22:00,
2013-09-13 14:27:00,84.6,54.5,29.72,North,0,1.1,1.8,36,0.00,,,0.00,WUHU216HW,2013-09-13 20:27:00,
2013-09-13 14:32:00,84.2,55.1,29.72,NNW,338,0.9,1.8,37,0.00,,,0.00,WUHU216HW,2013-09-13 20:32:00,
2013-09-13 14:37:00,84.2,56.6,29.73,NE,45,1.1,1.8,39,0.00,,,0.00,WUHU216HW,2013-09-13 20:37:00,
2013-09-13 14:42:00,83.7,55.4,29.72,NE,45,2.0,2.2,38,0.00,,,0.00,WUHU216HW,2013-09-13 20:42:00,
2013-09-13 14:47:00,81.7,54.4,29.73,NNE,23,0.0,2.2,39,0.00,,,0.00,WUHU216HW,2013-09-13 20:47:00,
2013-09-13 14:52:00,81.4,54.8,29.73,NE,45,1.3,1.6,40,0.00,,,0.00,WUHU216HW,2013-09-13 20:52:00,
2013-09-13 14:57:00,81.5,55.0,29.73,NW,315,0.2,1.6,40,0.00,,,0.00,WUHU216HW,2013-09-13 20:57:00,
2013-09-13 15:02:00,81.2,54.6,29.73,NNE,23,0.4,1.6,40,0.00,,,0.00,WUHU216HW,2013-09-13 21:02:00,
2013-09-13 15:07:00,80.5,54.0,29.73,West,270,0.9,1.6,40,0.00,,,0.00,WUHU216HW,2013-09-13 21:07:00,
2013-09-13 15:12:00,79.7,54.0,29.72,North,0,1.1,2.5,41,0.00,,,0.00,WUHU216HW,2013-09-13 21:12:00,
2013-09-13 15:17:00,78.3,52.7,29.72,North,0,0.0,3.1,41,0.00,,,0.00,WUHU216HW,2013-09-13 21:17:00,
2013-09-13 15:22:00,77.6,53.3,29.72,North,0,0.0,3.1,43,0.00,,,0.00,WUHU216HW,2013-09-13 21:22:00,
2013-09-13 15:27:00,78.1,54.4,29.72,NNW,338,0.0,0.4,44,0.00,,,0.00,WUHU216HW,2013-09-13 21:27:00,
2013-09-13 15:32:00,78.7,53.7,29.72,North,0,1.1,1.1,42,0.00,,,0.00,WUHU216HW,2013-09-13 21:32:00,
2013-09-13 15:37:00,78.1,53.1,29.72,NNW,338,0.0,2.5,42,0.00,,,0.00,WUHU216HW,2013-09-13 21:37:00,
2013-09-13 15:43:00,77.8,52.8,29.72,NE,45,0.7,2.5,42,0.00,,,0.00,WUHU216HW,2013-09-13 21:43:00,
2013-09-13 15:48:00,77.2,53.6,29.72,North,0,1.3,2.0,44,0.00,,,0.00,WUHU216HW,2013-09-13 21:48:00,
2013-09-13 15:53:00,77.0,53.4,29.72,WSW,248,0.0,2.2,44,0.00,,,0.00,WUHU216HW,2013-09-13 21:53:00,
2013-09-13 15:58:00,77.0,54.0,29.71,NE,45,0.0,2.2,45,0.00,,,0.00,WUHU216HW,2013-09-13 21:58:00,
2013-09-13 16:03:00,76.7,53.1,29.71,NNE,23,0.0,1.3,44,0.00,,,0.00,WUHU216HW,2013-09-13 22:03:00,
2013-09-13 16:08:00,76.9,53.2,29.71,WSW,248,0.9,1.8,44,0.00,,,0.00,WUHU216HW,2013-09-13 22:08:00,
2013-09-13 16:13:00,77.0,54.0,29.71,NE,45,0.7,1.8,45,0.00,,,0.00,WUHU216HW,2013-09-13 22:13:00,
2013-09-13 16:18:00,76.9,53.2,29.71,North,0,0.0,2.2,44,0.00,,,0.00,WUHU216HW,2013-09-13 22:18:00,
2013-09-13 16:23:00,76.3,53.4,29.71,NNW,338,0.4,2.2,45,0.00,,,0.00,WUHU216HW,2013-09-13 22:23:00,
2013-09-13 16:28:00,76.1,53.8,29.71,North,0,0.0,0.4,46,0.00,,,0.00,WUHU216HW,2013-09-13 22:28:00,
2013-09-13 16:33:00,76.0,53.6,29.71,NE,45,0.4,0.9,46,0.00,,,0.00,WUHU216HW,2013-09-13 22:33:00,
2013-09-13 16:38:00,75.8,53.5,29.71,NNE,23,0.0,0.9,46,0.00,,,0.00,WUHU216HW,2013-09-13 22:38:00,
2013-09-13 16:43:00,75.4,53.7,29.70,WNW,293,0.0,0.2,47,0.00,,,0.00,WUHU216HW,2013-09-13 22:43:00,
2013-09-13 16:48:00,75.2,53.7,29.70,West,270,0.0,0.9,47,0.00,,,0.00,WUHU216HW,2013-09-13 22:48:00,
2013-09-13 16:53:00,74.9,53.8,29.71,West,270,0.0,0.9,48,0.00,,,0.00,WUHU216HW,2013-09-13 22:53:00,
2013-09-13 16:58:00,74.9,54.5,29.71,West,270,0.0,0.0,49,0.00,,,0.00,WUHU216HW,2013-09-13 22:58:00,
2013-09-13 17:03:00,74.2,54.4,29.71,West,270,0.0,0.4,50,0.00,,,0.00,WUHU216HW,2013-09-13 23:03:00,
2013-09-13 17:08:00,73.8,54.0,29.71,West,270,0.0,0.4,50,0.00,,,0.00,WUHU216HW,2013-09-13 23:08:00,
2013-09-13 17:13:00,73.6,54.4,29.71,West,270,0.0,0.0,51,0.00,,,0.00,WUHU216HW,2013-09-13 23:13:00,
2013-09-13 17:18:00,73.6,54.4,29.70,West,270,0.0,0.0,51,0.00,,,0.00,WUHU216HW,2013-09-13 23:18:00,
2013-09-13 17:23:00,73.1,53.8,29.70,West,270,0.0,0.0,51,0.00,,,0.00,WUHU216HW,2013-09-13 23:23:00,
2013-09-13 17:28:00,72.7,54.0,29.70,West,270,0.0,0.0,52,0.00,,,0.00,WUHU216HW,2013-09-13 23:28:00,
2013-09-13 17:33:00,72.4,53.6,29.70,West,270,0.0,0.0,52,0.00,,,0.00,WUHU216HW,2013-09-13 23:33:00,
2013-09-13 17:38:00,72.0,53.4,29.70,West,270,0.0,0.0,52,0.00,,,0.00,WUHU216HW,2013-09-13 23:38:00,
2013-09-13 17:43:00,71.6,53.0,29.70,West,270,0.0,0.0,52,0.00,,,0.00,WUHU216HW,2013-09-13 23:43:00,
2013-09-13 17:48:00,71.5,52.8,29.71,West,270,0.0,0.0,52,0.00,,,0.00,WUHU216HW,2013-09-13 23:48:00,
2013-09-13 17:53:00,71.3,51.1,29.70,West,270,0.0,0.0,49,0.00,,,0.00,WUHU216HW,2013-09-13 23:53:00,
2013-09-13 17:58:00,71.1,50.9,29.70,West,270,0.0,0.0,49,0.00,,,0.00,WUHU216HW,2013-09-13 23:58:00,
2013-09-13 18:03:00,70.9,50.8,29.70,West,270,0.0,0.0,49,0.00,,,0.00,WUHU216HW,2013-09-14 00:03:00,
2013-09-13 18:08:00,71.1,50.3,29.70,West,270,0.0,0.0,48,0.00,,,0.00,WUHU216HW,2013-09-14 00:08:00,
2013-09-13 18:13:00,70.9,50.2,29.70,West,270,0.0,0.0,48,0.00,,,0.00,WUHU216HW,2013-09-14 00:13:00,
2013-09-13 18:18:00,70.9,49.6,29.70,West,270,0.0,0.0,47,0.00,,,0.00,WUHU216HW,2013-09-14 00:18:00,
2013-09-13 18:23:00,70.7,48.2,29.70,West,270,0.0,0.0,45,0.00,,,0.00,WUHU216HW,2013-09-14 00:23:00,
2013-09-13 18:28:00,70.6,49.2,29.70,West,270,0.0,0.0,47,0.00,,,0.00,WUHU216HW,2013-09-14 00:28:00,
2013-09-13 18:33:00,70.6,46.3,29.70,WSW,248,0.4,0.4,42,0.00,,,0.00,WUHU216HW,2013-09-14 00:33:00,
2013-09-13 18:38:00,70.2,47.8,29.70,WSW,248,0.0,0.4,45,0.00,,,0.00,WUHU216HW,2013-09-14 00:38:00,
2013-09-13 18:43:00,70.2,45.4,29.70,WSW,248,0.0,0.4,41,0.00,,,0.00,WUHU216HW,2013-09-14 00:43:00,
2013-09-13 18:48:00,69.7,45.5,29.70,WSW,248,0.0,0.0,42,0.00,,,0.00,WUHU216HW,2013-09-14 00:48:00,
2013-09-13 18:53:00,69.3,45.7,29.70,WSW,248,0.0,0.0,43,0.00,,,0.00,WUHU216HW,2013-09-14 00:53:00,
2013-09-13 18:58:00,69.1,42.3,29.70,WSW,248,0.0,0.0,38,0.00,,,0.00,WUHU216HW,2013-09-14 00:58:00,
2013-09-13 19:03:00,68.6,42.6,29.70,WSW,248,0.0,0.0,39,0.00,,,0.00,WUHU216HW,2013-09-14 01:03:00,
2013-09-13 19:08:00,68.0,42.8,29.70,WSW,248,0.0,0.0,40,0.00,,,0.00,WUHU216HW,2013-09-14 01:08:00,
2013-09-13 19:13:00,67.9,41.9,29.70,WSW,248,0.0,0.0,39,0.00,,,0.00,WUHU216HW,2013-09-14 01:13:00,
2013-09-13 19:18:00,67.5,40.9,29.70,WSW,248,0.2,0.7,38,0.00,,,0.00,WUHU216HW,2013-09-14 01:18:00,
2013-09-13 19:23:00,67.1,41.3,29.70,WSW,248,0.0,0.7,39,0.00,,,0.00,WUHU216HW,2013-09-14 01:23:00,
2013-09-13 19:28:00,66.8,37.4,29.70,WSW,248,0.0,0.0,34,0.00,,,0.00,WUHU216HW,2013-09-14 01:28:00,
2013-09-13 19:33:00,66.4,35.7,29.70,WSW,248,0.7,0.7,32,0.00,,,0.00,WUHU216HW,2013-09-14 01:33:00,
2013-09-13 19:38:00,65.9,35.1,29.70,WSW,248,0.4,1.1,32,0.00,,,0.00,WUHU216HW,2013-09-14 01:38:00,
2013-09-13 19:43:00,65.5,34.8,29.70,WSW,248,0.0,1.1,32,0.00,,,0.00,WUHU216HW,2013-09-14 01:43:00,
2013-09-13 19:48:00,65.2,34.5,29.70,WSW,248,0.0,0.2,32,0.00,,,0.00,WUHU216HW,2013-09-14 01:48:00,
2013-09-13 19:53:00,65.0,33.6,29.70,SW,225,0.0,0.0,31,0.00,,,0.00,WUHU216HW,2013-09-14 01:53:00,
2013-09-13 19:58:00,64.6,34.0,29.70,SW,225,0.0,0.0,32,0.00,,,0.00,WUHU216HW,2013-09-14 01:58:00,
2013-09-13 20:03:00,64.4,32.4,29.70,SW,225,0.7,0.9,30,0.00,,,0.00,WUHU216HW,2013-09-14 02:03:00,
2013-09-13 20:08:00,64.1,32.8,29.71,SW,225,0.2,0.9,31,0.00,,,0.00,WUHU216HW,2013-09-14 02:08:00,
2013-09-13 20:13:00,63.7,29.8,29.71,SW,225,0.7,0.9,28,0.00,,,0.00,WUHU216HW,2013-09-14 02:13:00,
2013-09-13 20:18:00,63.4,29.4,29.71,SW,225,0.4,0.9,28,0.00,,,0.00,WUHU216HW,2013-09-14 02:18:00,
2013-09-13 20:23:00,63.0,27.2,29.71,SW,225,0.4,0.9,26,0.00,,,0.00,WUHU216HW,2013-09-14 02:23:00,
2013-09-13 20:28:00,62.8,26.1,29.71,SW,225,0.7,0.9,25,0.00,,,0.00,WUHU216HW,2013-09-14 02:28:00,
2013-09-13 20:33:00,62.6,25.9,29.71,SW,225,0.7,0.7,25,0.00,,,0.00,WUHU216HW,2013-09-14 02:33:00,
2013-09-13 20:38:00,62.5,25.7,29.71,SW,225,0.0,0.7,25,0.00,,,0.00,WUHU216HW,2013-09-14 02:38:00,
2013-09-13 20:43:00,62.3,25.7,29.71,SW,225,0.0,0.7,25,0.00,,,0.00,WUHU216HW,2013-09-14 02:43:00,
2013-09-13 20:48:00,61.9,25.3,29.71,SW,225,0.9,0.9,25,0.00,,,0.00,WUHU216HW,2013-09-14 02:48:00,
2013-09-13 20:53:00,61.7,25.1,29.71,SW,225,0.9,1.1,25,0.00,,,0.00,WUHU216HW,2013-09-14 02:53:00,
2013-09-13 20:58:00,61.6,26.9,29.72,SW,225,0.9,1.1,27,0.00,,,0.00,WUHU216HW,2013-09-14 02:58:00,
2013-09-13 21:03:00,61.4,25.8,29.72,SW,225,0.4,0.9,26,0.00,,,0.00,WUHU216HW,2013-09-14 03:03:00,
2013-09-13 21:08:00,61.2,27.5,29.72,SW,225,0.4,0.7,28,0.00,,,0.00,WUHU216HW,2013-09-14 03:08:00,
2013-09-13 21:13:00,61.0,30.1,29.72,SW,225,0.0,0.9,31,0.00,,,0.00,WUHU216HW,2013-09-14 03:13:00,
2013-09-13 21:18:00,60.8,30.6,29.73,SW,225,0.0,0.9,32,0.00,,,0.00,WUHU216HW,2013-09-14 03:18:00,
2013-09-13 21:23:00,60.8,32.0,29.73,SW,225,0.0,0.9,34,0.00,,,0.00,WUHU216HW,2013-09-14 03:23:00,
2013-09-13 21:28:00,60.8,33.5,29.73,SW,225,1.1,1.1,36,0.00,,,0.00,WUHU216HW,2013-09-14 03:28:00,
2013-09-13 21:33:00,60.8,34.2,29.73,SSW,203,0.0,1.1,37,0.00,,,0.00,WUHU216HW,2013-09-14 03:33:00,
2013-09-13 21:38:00,60.8,34.2,29.73,SSW,203,0.7,0.9,37,0.00,,,0.00,WUHU216HW,2013-09-14 03:38:00,
2013-09-13 21:43:00,60.7,34.7,29.73,SSW,203,0.4,0.9,38,0.00,,,0.00,WUHU216HW,2013-09-14 03:43:00,
2013-09-13 21:48:00,60.7,34.7,29.73,SSW,203,0.4,0.7,38,0.00,,,0.00,WUHU216HW,2013-09-14 03:48:00,
2013-09-13 21:53:00,60.5,35.3,29.73,SSW,203,0.4,0.7,39,0.00,,,0.00,WUHU216HW,2013-09-14 03:53:00,
2013-09-13 21:58:00,60.5,36.0,29.74,SSW,203,0.0,0.4,40,0.00,,,0.00,WUHU216HW,2013-09-14 03:58:00,
2013-09-13 22:01:00,60.5,35.3,29.73,SSW,203,0.0,0.4,39,0.00,,,0.00,WUHU216HW,2013-09-14 04:01:00,
2013-09-13 22:02:00,60.3,37.0,29.74,SSW,203,1.1,1.1,42,0.00,,,0.00,WUHU216HW,2013-09-14 04:02:00,
2013-09-13 22:07:00,60.5,35.3,29.74,SSW,203,0.4,1.8,39,0.00,,,0.00,WUHU216HW,2013-09-14 04:07:00,
2013-09-13 22:12:00,60.5,35.3,29.74,SSW,203,0.2,1.8,39,0.00,,,0.00,WUHU216HW,2013-09-14 04:12:00,
2013-09-13 22:17:00,60.5,34.6,29.74,SSW,203,0.0,1.1,38,0.00,,,0.00,WUHU216HW,2013-09-14 04:17:00,
2013-09-13 22:22:00,60.5,33.9,29.74,SSW,203,0.0,0.7,37,0.00,,,0.00,WUHU216HW,2013-09-14 04:22:00,
2013-09-13 22:27:00,60.3,34.5,29.74,SSW,203,0.7,0.7,38,0.00,,,0.00,WUHU216HW,2013-09-14 04:27:00,
2013-09-13 22:32:00,60.3,33.8,29.74,SSW,203,0.0,1.1,37,0.00,,,0.00,WUHU216HW,2013-09-14 04:32:00,
2013-09-13 22:37:00,60.3,33.0,29.74,SSW,203,0.4,1.1,36,0.00,,,0.00,WUHU216HW,2013-09-14 04:37:00,
2013-09-13 22:42:00,60.1,35.0,29.74,SW,225,1.1,1.1,39,0.00,,,0.00,WUHU216HW,2013-09-14 04:42:00,
2013-09-13 22:47:00,60.3,33.8,29.74,SW,225,1.3,1.3,37,0.00,,,0.00,WUHU216HW,2013-09-14 04:47:00,
2013-09-13 22:52:00,60.3,35.2,29.74,SW,225,0.7,1.3,39,0.00,,,0.00,WUHU216HW,2013-09-14 04:52:00,
2013-09-13 22:57:00,60.3,35.2,29.74,SW,225,0.0,1.8,39,0.00,,,0.00,WUHU216HW,2013-09-14 04:57:00,
2013-09-13 23:02:00,60.3,35.9,29.74,SW,225,0.4,1.8,40,0.00,,,0.00,WUHU216HW,2013-09-14 05:02:00,
2013-09-13 23:07:00,60.1,36.3,29.74,WSW,248,1.1,1.1,41,0.00,,,0.00,WUHU216HW,2013-09-14 05:07:00,
2013-09-13 23:12:00,60.3,35.9,29.74,WSW,248,0.0,1.1,40,0.00,,,0.00,WUHU216HW,2013-09-14 05:12:00,
2013-09-13 23:17:00,60.1,36.9,29.74,SW,225,0.4,1.3,42,0.00,,,0.00,WUHU216HW,2013-09-14 05:17:00,
2013-09-13 23:22:00,60.3,36.5,29.74,SW,225,0.2,1.3,41,0.00,,,0.00,WUHU216HW,2013-09-14 05:22:00,
2013-09-13 23:27:00,60.1,36.3,29.75,SW,225,0.2,0.7,41,0.00,,,0.00,WUHU216HW,2013-09-14 05:27:00,
2013-09-13 23:32:00,60.1,35.7,29.75,SSW,203,1.3,1.3,40,0.00,,,0.00,WUHU216HW,2013-09-14 05:32:00,
2013-09-13 23:37:00,59.9,36.7,29.75,SW,225,0.4,1.3,42,0.00,,,0.00,WUHU216HW,2013-09-14 05:37:00,
2013-09-13 23:42:00,59.8,36.0,29.75,SW,225,0.7,0.7,41,0.00,,,0.00,WUHU216HW,2013-09-14 05:42:00,
2013-09-13 23:47:00,59.8,36.0,29.75,SW,225,0.7,1.1,41,0.00,,,0.00,WUHU216HW,2013-09-14 05:47:00,
2013-09-13 23:52:00,59.8,37.1,29.75,SSW,203,2.0,2.0,43,0.00,,,0.00,WUHU216HW,2013-09-14 05:52:00,
2013-09-13 23:57:00,59.6,37.0,29.76,SSW,203,0.7,2.0,43,0.00,,,0.00,WUHU216HW,2013-09-14 05:57:00,